Flag for Germany Weather past 2 weeks in Gross-Gerau, Hesse, Germany

Now
61 °F

Light rain. Passing clouds.


Feels Like: 61 °F
Forecast: 58 / 83 °F
Wind: 3 mph from Northwest

Location: Frankfurt-M-Flughafen Airport

Current Time: Aug 28, 2015 at 4:53:41 AM

Latest Report: Aug 28, 2015 at 4:20 AM


Visibility: N/A

Pressure: 29.95 "Hg

Humidity: 94%

Dew point: 59 °F

Location of Gross-GerauLocation

Historic Weather in Gross-Gerau — Graph

°F

Gross-Gerau temperature yesterday

Maximum temperature yesterday: 84 °F (at 2:50 PM)
Minimum temperature yesterday: 57 °F (at 4:50 AM)
Average temperature yesterday: 70 °F

Past Weeks' High & Low Weather Summary

 TemperatureHumidityPressure
High95 °F (Aug 13, 3:50 PM)100% (Aug 15, 4:20 AM)30.27 "Hg (Aug 15, 4:20 AM)
Low50 °F (Aug 19, 4:50 AM)21% (Aug 22, 3:20 PM)29.68 "Hg (Aug 23, 5:20 PM)
Average67 °F67%29.95 "Hg
* Reported Aug 13 3:20 AM — Aug 28 3:50 AM, Gross-Gerau, Weather by CustomWeather, © 2015

Note: Actual official high and low records may vary slightly from our data, if they occured in-between our weather recording intervals... More about our weather records

Advertising

Gross-Gerau weather history for previous 24 hours

 ConditionsComfort  
Time TempWeatherWind HumidityBarometerVisibility
3:50 AM
Fri, Aug 28
61 °FLight rain. Passing clouds.10 mph94%29.92 "HgN/A
3:20 AM64 °FLight rain. Partly cloudy.9 mph94%29.92 "HgN/A
2:50 AM64 °FLight rain. Partly cloudy.6 mph94%29.89 "HgN/A
2:20 AM64 °FLight rain. Mostly cloudy.9 mph94%29.89 "HgN/A
1:50 AM64 °FLight rain. Mostly cloudy.8 mph100%29.89 "HgN/A
1:20 AM66 °FLight rain. Mostly cloudy.10 mph94%29.92 "Hg6 mi
12:50 AM66 °FRain. Mostly cloudy.7 mph94%29.89 "Hg6 mi
12:20 AM66 °FLight rain. Partly cloudy.9 mph88%29.89 "HgN/A
11:50 PM
Thu, Aug 27
68 °FLight rain. Partly cloudy.7 mph83%29.89 "HgN/A
11:20 PM68 °FLight rain. Partly cloudy.5 mph83%29.86 "HgN/A
10:50 PM68 °FLight rain. Partly cloudy.2 mph88%29.86 "HgN/A
10:20 PM68 °FLight rain. Clear.3 mph88%29.83 "HgN/A
9:50 PM72 °FLight rain. Clear.8 mph73%29.83 "HgN/A
9:20 PM70 °FLight rain. Clear.8 mph78%29.83 "HgN/A
8:50 PM70 °FLight rain. Clear.10 mph83%29.83 "HgN/A
8:20 PM72 °FLight rain. Clear.12 mph73%29.83 "HgN/A
7:50 PM75 °FLight rain. Clear.17 mph61%29.83 "HgN/A
7:20 PM79 °FPassing clouds.8 mph48%29.80 "HgN/A
6:50 PM81 °FPassing clouds.7 mph45%29.77 "HgN/A
6:20 PM81 °FPassing clouds.8 mph45%29.80 "HgN/A
5:50 PM81 °FSunny.10 mph45%29.77 "Hg10 mi
5:20 PM82 °FPassing clouds.8 mph42%29.77 "HgN/A
4:50 PM82 °FPassing clouds.13 mph40%29.80 "HgN/A
4:20 PM84 °FSunny.14 mph33%29.80 "Hg10 mi
3:50 PM84 °FSunny.14 mph35%29.80 "Hg10 mi
3:20 PM82 °FSunny.14 mph37%29.80 "Hg10 mi
2:50 PM84 °FPassing clouds.12 mph37%29.83 "HgN/A
2:20 PM81 °FPassing clouds.10 mph45%29.83 "HgN/A
1:50 PM79 °FBroken clouds.6 mph48%29.86 "HgN/A
1:20 PM77 °FBroken clouds.6 mph51%29.86 "HgN/A
12:50 PM77 °FPartly sunny.3 mph47%29.89 "HgN/A
12:20 PM75 °FBroken clouds.5 mph50%29.89 "HgN/A
11:20 AM73 °FPartly sunny.9 mph53%29.92 "HgN/A
10:50 AM73 °FBroken clouds.7 mph57%29.92 "HgN/A
10:20 AM72 °FBroken clouds.8 mph61%29.92 "HgN/A
9:50 AM70 °FPartly sunny.8 mph64%29.92 "HgN/A
9:20 AM68 °FBroken clouds.5 mph64%29.89 "HgN/A
8:50 AM66 °FPassing clouds.5 mph68%29.89 "HgN/A
8:20 AM64 °FSunny.7 mph78%29.89 "Hg10 mi
7:50 AM61 °FSunny.5 mph88%29.89 "Hg10 mi
7:20 AM61 °FClear.3 mph83%29.89 "Hg10 mi
6:50 AM59 °FClear.2 mph88%29.89 "Hg10 mi
6:20 AM61 °FClear.2 mph83%29.89 "Hg10 mi
5:50 AM57 °FClear.3 mph88%29.89 "Hg10 mi
5:20 AM57 °FClear.5 mph94%29.89 "Hg10 mi
4:50 AM57 °FClear.2 mph88%29.86 "Hg10 mi
4:20 AM59 °FClear.2 mph88%29.86 "Hg10 mi
Weather by CustomWeather, © 2015

See weather overviewHow to use our weather pages